Home > Weather > Tyler > Past weeks

Flag for USA Past Weather in Tyler, Texas, USA — Yesterday and Last 2 Weeks

Now
85 °F

Sunny.


Feels Like: 91 °F
Forecast: 74 / 87 °F
Wind: 7 mph from North

Location: Tyler Pounds Field

Current Time: Aug 28, 2016 at 2:06:17 PM

Latest Report: Aug 28, 2016 at 12:53 PM


Visibility: 10 mi

Pressure: 30.04 "Hg

Humidity: 65%

Dew Point: 72 °F

Location of TylerLocation

Past Weather in Tyler — Graph

°F

Tyler Temperature Yesterday

Maximum temperature yesterday: 89 °F (at 4:53 PM)
Minimum temperature yesterday: 73 °F (at 5:53 AM)
Average temperature yesterday: 80 °F

High & Low Weather Summary for the Past Weeks

 TemperatureHumidityPressure
High94 °F (Aug 13, 2:53 PM)100% (Aug 15, 12:53 PM)30.16 "Hg (Aug 15, 12:53 PM)
Low72 °F (Aug 21, 5:53 AM)43% (Aug 25, 5:53 PM)29.74 "Hg (Aug 13, 4:53 PM)
Average79 °F83%30.00 "Hg
* Reported Aug 13 12:53 PM — Aug 28 12:53 PM, Tyler, Weather by CustomWeather, © 2016

Note: Actual official high and low records may vary slightly from our data, if they occured in-between our weather recording intervals... More about our weather records

Advertising

Tyler Weather History for the Previous 24 Hours

Scroll right to see more
 ConditionsComfort  
Time TempWeatherWind HumidityBarometerVisibility
12:53 PM
Sun, Aug 28
85 °FSunny.7 mph65%30.04 "Hg10 mi
11:53 AM82 °FScattered clouds.8 mph72%30.06 "Hg10 mi
10:53 AM77 °FLight rain. Mostly cloudy.8 mph88%30.06 "Hg10 mi
9:53 AM75 °FOvercast.9 mph94%30.07 "Hg10 mi
8:53 AM74 °FLight rain. More clouds than sun.No wind91%30.05 "Hg8 mi
7:53 AM74 °FLight rain. Overcast.10 mph91%30.06 "Hg10 mi
6:53 AM73 °FOvercast.6 mph94%30.03 "Hg10 mi
5:53 AM73 °FPassing clouds.5 mph94%30.01 "Hg10 mi
4:53 AM73 °FOvercast.5 mph94%30.00 "Hg10 mi
3:53 AM73 °FClear.6 mph94%29.99 "Hg9 mi
2:53 AM74 °FClear.3 mph94%29.99 "Hg10 mi
1:53 AM75 °FClear.No wind88%30.00 "Hg10 mi
12:53 AM75 °FClear.No wind90%30.01 "Hg10 mi
11:53 PM
Sat, Aug 27
76 °FClear.8 mph88%30.00 "Hg10 mi
10:53 PM76 °FLight rain. Passing clouds.8 mph91%30.01 "Hg10 mi
9:53 PM76 °FPartly cloudy.5 mph88%30.00 "Hg10 mi
8:53 PM80 °FThundershowers. Partly cloudy.12 mph71%29.98 "Hg10 mi
7:53 PM84 °FSunny.3 mph74%29.95 "Hg10 mi
6:53 PM87 °FSunny.5 mph65%29.94 "Hg10 mi
5:53 PM87 °FPassing clouds.No wind65%29.92 "Hg10 mi
4:53 PM89 °FSunny.6 mph57%29.92 "Hg10 mi
3:53 PM86 °FSunny.13 mph67%29.93 "Hg10 mi
2:53 PM87 °FThundershowers. Mostly cloudy.3 mph65%29.95 "Hg10 mi
Weather by CustomWeather, © 2016

See weather overviewHow to use our weather pages